Hlavní strana
METAR-TAF:

METAR-TAF

Letiště :

Pryor Field Regional Airport

Decatur, Alabama, Spojené státy americké

zeměpisná šířka: 34-39-29N, zeměpisná délka: 086-56-36W, výška: 180 m

Aktuální stav počasí

Zpráva byla vytvořena před 36 minutami, v 22:53 UTC
Jihojihovýchodní vítr 3 kt
Teplota 8°C
Vlhkost vzduchu 81%
Tlak 1017 hPa
Viditelnost: 16.1 km
Zataženo ve výšce 6000 ft

METAR: KDCU 262253Z AUTO 16003KT 10SM OVC060 08/05 A3002 RMK AO2 SLP168 T00830050

Čas: 17:29 (23:29 UTC)


TAF: chybějící

Stav a předpovědi počasí z více než 4 000 letišť (zprávy METAR a TAF).

Červené a žluté tečky na mapě představují dostupné meteorologické stanice.

Když kurzor umístíte na tečku, zobrazí se název stanice.

Pak kliknutím zobrazíte stav a předpověď počasí.

Chcete-li změnit mapu, kliknutím na zelené tlačítko se znaménkem +mapu přiblížíte, kliknutím na zelené tlačítko se znaménkem – mapu oddálíte a kliknutím na zelené šipky přejdete na sousední mapy.


METAR-TAF: